| time (UTC) | temp C | wind direction | speed KPH | gust KPH | rain 1hr cm | rain 24hr cm | rain mn cm | humidity % | barometer mb |
| 20260506153024 | 12 | 0.0 | 0.0 | 0.10 | 0.10 | 0.10 | 83 | 1016.3 | |
| 20260506151524 | 12 | 0.0 | 0.0 | 0.00 | 0.00 | 0.00 | 81 | 1017.7 | |
| 20260506150024 | 12 | 0.0 | 0.0 | 0.00 | 0.00 | 0.00 | 80 | 1016.8 | |
| 20260506144519 | 13 | 0.0 | 0.0 | 0.00 | 0.00 | 0.00 | 80 | 1015.6 | |
| 20260506143017 | 12 | 0.0 | 0.0 | 0.00 | 0.00 | 0.00 | 79 | 1015.5 | |
| 20260506141514 | 12 | 0.0 | 0.0 | 0.00 | 0.00 | 0.00 | 78 | 1016.1 | |
| 20260506140012 | 12 | 0.0 | 0.0 | 0.00 | 0.00 | 0.00 | 78 | 1015.6 | |
| 20260506134520 | 12 | 0.0 | 0.0 | 0.00 | 0.00 | 0.00 | 78 | 1015.2 | |
| 20260506133108 | 12 | 0.0 | 0.0 | 0.00 | 0.00 | 0.00 | 78 | 1014.8 | |
| 20260506131506 | 13 | 0.0 | 0.0 | 0.00 | 0.00 | 0.00 | 77 | 1014.6 | |
| 20260506130004 | 13 | 0.0 | 0.0 | 0.00 | 0.00 | 0.00 | 77 | 1014.3 | |
| 20260506124611 | 13 | 0.0 | 0.0 | 0.00 | 0.00 | 0.00 | 76 | 1014.3 | |
| 20260506123058 | 13 | 0.0 | 0.0 | 0.00 | 0.00 | 0.00 | 75 | 1014.0 | |
| 20260506121606 | 13 | 0.0 | 0.0 | 0.00 | 0.00 | 0.00 | 75 | 1013.9 | |
| 20260506120054 | 13 | 0.0 | 0.0 | 0.00 | 0.00 | 0.00 | 75 | 1013.6 | |
| 20260506114554 | 13 | 0.0 | 0.0 | 0.00 | 0.00 | 0.00 | 74 | 1013.5 | |
| 20260506113049 | 14 | 0.0 | 0.0 | 0.00 | 0.00 | 0.00 | 73 | 1013.1 | |
| 20260506111604 | 14 | 0.0 | 0.0 | 0.00 | 0.00 | 0.00 | 73 | 1012.8 | |
| 20260506110045 | 14 | 0.0 | 0.0 | 0.00 | 0.00 | 0.00 | 73 | 1012.5 | |
| 20260506104543 | 14 | 0.0 | 0.0 | 0.00 | 0.00 | 0.00 | 73 | 1012.4 | |
| 20260506103041 | 14 | 0.0 | 0.0 | 0.00 | 0.00 | 0.00 | 73 | 1012.0 | |
| 20260506101539 | 14 | 0.0 | 0.0 | 0.00 | 0.00 | 0.00 | 73 | 1012.0 | |
| 20260506100038 | 14 | 0.0 | 0.0 | 0.00 | 0.00 | 0.00 | 73 | 1011.7 | |
| 20260506094536 | 15 | 0.0 | 0.0 | 0.00 | 0.00 | 0.00 | 73 | 1011.7 | |
| 20260506093035 | 15 | 0.0 | 0.0 | 0.00 | 0.00 | 0.00 | 73 | 1011.6 | |
| 20260506091533 | 15 | 0.0 | 0.0 | 0.00 | 0.00 | 0.00 | 73 | 1011.5 | |
| 20260506090031 | 15 | 0.0 | 0.0 | 0.00 | 0.00 | 0.00 | 73 | 1011.4 | |
| 20260506084530 | 15 | 0.0 | 0.0 | 0.00 | 0.00 | 0.00 | 74 | 1011.2 | |
| 20260506083028 | 15 | 0.0 | 0.0 | 0.00 | 0.00 | 0.00 | 73 | 1011.0 | |
| 20260506081531 | 15 | 0.0 | 0.0 | 0.00 | 0.00 | 0.00 | 73 | 1011.0 | |
| 20260506073022 | 16 | 0.0 | 0.0 | 0.00 | 0.00 | 0.00 | 74 | 1010.6 | |
| 20260506071522 | 16 | 0.0 | 0.0 | 0.00 | 0.00 | 0.00 | 74 | 1010.5 | |
| 20260506061523 | 16 | 0.0 | 0.0 | 0.00 | 0.00 | 0.00 | 74 | 1010.6 | |
| 20260506044502 | 18 | 0.0 | 0.0 | 0.00 | 0.00 | 0.00 | 74 | 1010.3 | |
| 20260506043004 | 18 | 0.0 | 0.0 | 0.00 | 0.00 | 0.00 | 74 | 1010.5 | |
| 20260506041614 | 18 | 0.0 | 0.0 | 0.00 | 0.00 | 0.00 | 73 | 1010.3 | |
| 20260506040056 | 19 | 0.0 | 0.0 | 0.00 | 0.00 | 0.00 | 72 | 1009.9 | |
| 20260506034558 | 20 | 0.0 | 0.0 | 0.00 | 0.00 | 0.00 | 72 | 1009.3 | |
| 20260506033049 | 21 | 0.0 | 0.0 | 0.00 | 0.00 | 0.00 | 72 | 1009.3 | |
| 20260506031545 | 21 | 0.0 | 0.0 | 0.00 | 0.00 | 0.00 | 72 | 1009.1 | |
| 20260506030044 | 21 | 0.0 | 0.0 | 0.00 | 0.00 | 0.00 | 71 | 1008.9 | |
| 20260506024550 | 22 | 0.0 | 0.0 | 0.00 | 0.00 | 0.00 | 71 | 1008.7 | |
| 20260506023039 | 22 | 0.0 | 0.0 | 0.00 | 0.00 | 0.00 | 70 | 1008.0 | |
| 20260506021538 | 22 | 0.0 | 0.0 | 0.00 | 0.00 | 0.00 | 69 | 1007.8 | |
| 20260506020039 | 22 | 0.0 | 0.0 | 0.00 | 0.00 | 0.00 | 68 | 1007.3 | |
| 20260506014534 | 23 | 0.0 | 0.0 | 0.00 | 0.00 | 0.00 | 68 | 1007.1 | |
| 20260506013034 | 23 | 0.0 | 0.0 | 0.00 | 0.00 | 0.00 | 67 | 1007.1 | |
| 20260506011559 | 23 | 0.0 | 0.0 | 0.00 | 0.00 | 0.00 | 65 | 1006.8 | |
| 20260506010031 | 24 | 0.0 | 0.0 | 0.00 | 0.00 | 0.00 | 65 | 1006.7 | |
| 20260506004535 | 25 | 0.0 | 0.0 | 0.00 | 0.00 | 0.00 | 63 | 1006.5 | |
| 20260506003031 | 26 | 0.0 | 0.0 | 0.00 | 0.00 | 0.00 | 62 | 1006.3 | |
| 20260506001529 | 26 | 0.0 | 0.0 | 0.00 | 0.00 | 0.00 | 61 | 1006.0 | |
| 20260506000046 | 28 | 0.0 | 0.0 | 0.00 | 0.00 | 0.00 | 59 | 1005.5 | |
| 20260505234539 | 29 | 0.0 | 0.0 | 0.00 | 0.00 | 0.00 | 57 | 1005.1 | |
| 20260505233029 | 31 | 0.0 | 0.0 | 0.00 | 0.00 | 0.00 | 52 | 1005.0 | |
| 20260505231528 | 31 | 0.0 | 0.0 | 0.00 | 0.00 | 0.00 | 50 | 1004.7 | |
| 20260505230048 | 32 | 0.0 | 0.0 | 0.00 | 0.00 | 0.00 | 47 | 1004.5 | |
| 20260505224537 | 33 | 0.0 | 0.0 | 0.00 | 0.00 | 0.00 | 46 | 1004.1 | |
| 20260505223027 | 34 | 0.0 | 0.0 | 0.00 | 0.00 | 0.00 | 46 | 1003.8 | |
| 20260505221526 | 34 | 0.0 | 0.0 | 0.00 | 0.00 | 0.00 | 46 | 1003.5 | |
| 20260505220024 | 34 | 0.0 | 0.0 | 0.00 | 0.00 | 0.00 | 48 | 1003.7 | |
| 20260505214523 | 34 | 0.0 | 0.0 | 0.00 | 0.00 | 0.00 | 48 | 1003.8 | |
| 20260505213021 | 33 | 0.0 | 0.0 | 0.00 | 0.00 | 0.00 | 51 | 1003.9 | |
| 20260505211524 | 33 | 0.0 | 0.0 | 0.00 | 0.00 | 0.00 | 51 | 1004.1 | |
| 20260505210014 | 33 | 0.0 | 0.0 | 0.00 | 0.00 | 0.00 | 52 | 1004.3 | |
| 20260505204512 | 33 | 0.0 | 0.0 | 0.00 | 0.00 | 0.00 | 54 | 1004.5 | |
| 20260505203014 | 33 | 0.0 | 0.0 | 0.00 | 0.00 | 0.00 | 55 | 1004.8 | |
| 20260505201508 | 32 | 0.0 | 0.0 | 0.00 | 0.00 | 0.00 | 56 | 1004.9 | |
| 20260505200006 | 32 | 0.0 | 0.0 | 0.00 | 0.00 | 0.00 | 56 | 1005.1 | |
| 20260505194503 | 32 | 0.0 | 0.0 | 0.00 | 0.00 | 0.00 | 57 | 1005.0 | |
| 20260505193002 | 31 | 0.0 | 0.0 | 0.00 | 0.00 | 0.00 | 60 | 1005.4 | |
| 20260505191608 | 31 | 0.0 | 0.0 | 0.00 | 0.00 | 0.00 | 59 | 1005.2 | |
| 20260505190056 | 30 | 0.0 | 0.0 | 0.00 | 0.00 | 0.00 | 63 | 1005.2 | |
| 20260505184553 | 30 | 0.0 | 0.0 | 0.00 | 0.00 | 0.00 | 62 | 1005.4 | |
| 20260505183053 | 30 | 0.0 | 0.0 | 0.00 | 0.00 | 0.00 | 64 | 1005.6 | |
| 20260505181548 | 29 | 0.0 | 0.0 | 0.00 | 0.00 | 0.00 | 63 | 1005.6 | |
| 20260505180054 | 29 | 0.0 | 0.0 | 0.00 | 0.00 | 0.00 | 64 | 1005.7 | |
| 20260505174546 | 29 | 0.0 | 0.0 | 0.00 | 0.00 | 0.00 | 64 | 1005.7 | |
| 20260505173048 | 29 | 0.0 | 0.0 | 0.00 | 0.00 | 0.00 | 65 | 1005.9 | |
| 20260505171547 | 28 | 0.0 | 0.0 | 0.00 | 0.00 | 0.00 | 66 | 1005.8 | |
| 20260505170040 | 28 | 0.0 | 0.0 | 0.00 | 0.00 | 0.00 | 67 | 1005.7 | |
| 20260505164538 | 28 | 0.0 | 0.0 | 0.00 | 0.00 | 0.00 | 69 | 1006.0 | |
| 20260505163036 | 27 | 0.0 | 0.0 | 0.00 | 0.00 | 0.00 | 69 | 1005.8 | |
| 20260505161533 | 27 | 0.0 | 0.0 | 0.00 | 0.00 | 0.00 | 71 | 1005.8 |